Overview Statistics Trail Chart Weather Telemetry Raw packets
 

This is the latest recevied weather packets stored in our database for station/object K6GMW. If no packets are shown the sender has not sent any weather packets the latest 10 day(s).

<< 8 9 10 11 12 13 14 >>
Time Temp. Humidity Pressure Rain* Wind** Luminosity Snow
1788572406 32.22° C 52% 1013.7 hPa 0 mm - 0 W/m² -
1788572102 32.78° C 52% 1013.7 hPa 0 mm - 0 W/m² -
1788571797 32.78° C 51% 1013.7 hPa 0 mm - 0 W/m² -
1788571492 32.78° C 51% 1013.7 hPa 0 mm - 0 W/m² -
1788571189 32.78° C 51% 1013.6 hPa 0 mm - 0 W/m² -
1788570884 32.78° C 50% 1013.5 hPa 0 mm - 0 W/m² -
1788570580 32.78° C 50% 1013.6 hPa 0 mm - 0 W/m² -
1788570275 32.78° C 50% 1013.5 hPa 0 mm - 0 W/m² -
1788569970 32.78° C 51% 1013.5 hPa 0 mm - 0 W/m² -
1788569667 33.33° C 50% 1013.1 hPa 0 mm - 0 W/m² -
1788569366 33.33° C 49% 1013.4 hPa 0 mm - 1 W/m² -
1788569061 33.89° C 49% 1013.2 hPa 0 mm - 2 W/m² -
1788568756 33.89° C 48% 1013.4 hPa 0 mm - 5 W/m² -
1788568453 34.44° C 47% 1013.5 hPa 0 mm - 8 W/m² -
1788568148 34.44° C 46% 1013.3 hPa 0 mm - 13 W/m² -
1788567848 35° C 46% 1013.1 hPa 0 mm - 17 W/m² -
1788567548 35° C 45% 1013.3 hPa 0 mm - 23 W/m² -
1788567263 35.56° C 44% 1013.2 hPa 0 mm - 28 W/m² -
1788566937 35.56° C 44% 1013.1 hPa 0 mm - 35 W/m² -
1788566633 35.56° C 44% 1013.2 hPa 0 mm - 40 W/m² -
1788566328 36.11° C 43% 1013.2 hPa 0 mm - 47 W/m² -
1788566024 36.67° C 42% 1013.1 hPa 0 mm - 55 W/m² -
1788565724 36.67° C 42% 1012.9 hPa 0 mm - 60 W/m² -
1788565419 36.67° C 41% 1012.9 hPa 0 mm - 67 W/m² -
1788565115 36.67° C 41% 1013.1 hPa 0 mm - 79 W/m² -

* Rain latest hour (hover to see other rain measurements)
** Current wind speed in m/s (hover to see current wind gust speed)